Retour au catalogue

UNISAT 7

ActifScienceSSO
NORAD 47945·PAYLOAD·🇮🇹 Italy

Lancé Mar 22, 2021 depuis Baikonur Cosmodrome

Loading…

Prochains Passages (prochaines 24 heures)

TLE

FraisSource: Space-Track

Époque: Sep 14, 2026, 12:59 UTC

1 47945U 21022P   26257.54163697  .00012216  00000-0  28201-3 0  9997
2 47945  97.3780 163.4882 0010596 107.3719 252.8689 15.42629977303622

Suivez UNISAT 7 en temps réel avec AllMySat

Download on the App Store